www.pogodaiklimat.ru

Погода и климат >> Архив погоды >> Канада >> Shepherd Bay


ПОГОДА в Shepherd Bay

  • Прогноз погоды в Shepherd Bay
  • Монитор погоды в Shepherd Bay
  • Климат города

АРХИВ ПОГОДЫ в Shepherd Bay

Время (UTC), дата Ветер
(напр.,м/с)
 
Видим.   Явления Облачность Т
(С)
Тd
(С)
f
(%)
Тe
(С)
Тes
(С)
Комфортность P
(гПа)
Po
(гПа)
Тmin
(С)
Tmax
(С)
R
(мм)
R24
(мм)
S
(см)
09 10.12 Ю 10 н/о 5/5 1000 м
[]
-18.2 -20.8 80 -31 -31 опасность
обморожения
1012.1 1006.3
12 10.12 Ю 11 н/о 10/10 300 м
[]
-17.7 -20.3 80 -31 -31 опасность
обморожения
1009.3 1003.5
15 10.12 Ю 15 н/о 10/10 300 м
[]
-15.5 -17.7 83 -30 -30 1005.1 999.4
18 10.12 Ю 12 н/о 10/10 50 м
[]
-14.5 -16.6 84 -27 -27 1002.4 996.7
21 10.12 Ю 13 н/о 10/10 50 м
[]
-13.9 -15.9 85 -27 -27 997.6 992.0
00 11.12 Ю 14 н/о 10/10 50 м
[]
-12.3 -13.9 88 -25 -25 994.7 989.1
03 11.12 Ю 13 н/о 10/10 50 м
[]
-12.0 -13.7 87 -24 -24 992.0 986.4
06 11.12 Ю 12 н/о 10/10 100 м
[]
-12.0 -13.7 87 -24 -24 989.7 984.1 -18.8 -11.6
09 11.12 Ю 14 н/о 10/10 100 м
[]
-12.4 -14.1 87 -25 -25 988.1 982.5
12 11.12 Ю 13 н/о 10/10 100 м
[]
-11.2 -12.8 88 -23 -23 986.6 981.1
15 11.12 ЮЗ 12 н/о 10/10 50 м
[]
-9.4 -10.7 90 -21 -21 986.0 980.5
18 11.12 ЮЗ 11 н/о 10/10 300 м
[]
-11.6 -13.2 88 -23 -23 986.2 980.7
21 11.12 З 6 н/о 10/10 200 м
[]
-11.7 -13.3 88 -20 -20 987.6 982.1
00 12.12 З 8 н/о 10/10 300 м
[]
-14.8 -16.9 84 -26 -26 990.9 985.3
03 12.12 З 8 н/о 10/10 300 м
[]
-15.3 -17.5 83 -26 -26 992.7 987.1
06 12.12 З 5 н/о 10/10 200 м
[]
-16.0 -18.4 82 -25 -25 994.4 988.8 -16.1 -9.0
09 12.12 З 4 н/о 10/10 1000 м
[]
-16.7 -19.2 81 -24 -24 996.3 990.7
12 12.12 З 1 н/о 10/10 600 м
[]
-16.9 -19.5 80 -20 -20 996.5 990.9
15 12.12 ЮВ 3 н/о 10/10 600 м
[]
-17.2 -19.6 82 -24 -24 996.7 991.1
18 12.12 Ю 3 н/о 5/5 100 м
[]
-17.1 -19.5 82 -23 -23 996.9 991.3
21 12.12 ЮВ 4 н/о 10/10 100 м
[]
-15.6 -17.7 84 -23 -23 996.9 991.3
00 13.12 ЮВ 3 н/о 10/10 100 м
[]
-14.3 -16.3 85 -21 -21 996.7 991.1
03 13.12 ЮВ 3 н/о 10/10 600 м
[]
-13.0 -14.9 86 -19 -19 995.9 990.3
06 13.12 Ю 2 н/о 10/10 300 м
[]
-13.0 -15.0 85 -17 -17 996.4 990.8 -17.8 -12.6
09 13.12 В 2 н/о 10/10 300 м
[]
-13.5 -15.4 86 -18 -18 997.0 991.4
12 13.12 В 5 н/о 10/10 300 м
[]
-12.8 -14.9 84 -21 -21 997.4 991.8
15 13.12 В 6 н/о 10/10 200 м
[]
-12.3 -14.3 85 -21 -21 997.6 992.0
18 13.12 В 9 н/о 10/10 100 м
[]
-12.3 -13.9 88 -23 -23 997.7 992.1
21 13.12 В 9 н/о 10/10 200 м
[]
-12.5 -14.2 87 -23 -23 997.9 992.3
00 14.12 В 10 н/о 10/10 100 м
[]
-13.3 -15.3 85 -25 -25 997.4 991.8
03 14.12 СВ 10 н/о 10/10 300 м
[]
-13.8 -15.9 84 -25 -25 996.4 990.8
06 14.12 В 10 н/о 10/10 600 м
[]
-13.4 -15.4 85 -25 -25 995.5 989.9 -14.2 -12.0
09 14.12 В 11 н/о 10/10 100 м
[]
-12.1 -13.9 86 -23 -23 994.8 989.2
12 14.12 СВ 12 н/о 10/10 300 м
[]
-12.7 -14.5 86 -25 -25 993.9 988.3
15 14.12 СВ 14 н/о 10/10 600 м
[]
-14.2 -16.2 85 -28 -28 992.6 987.0
18 14.12 СВ 14 н/о 9/9 600 м
[]
-13.2 -15.1 86 -26 -26 992.2 986.6
21 14.12 СВ 12 н/о 10/10 100 м
[]
-12.1 -13.8 87 -24 -24 991.9 986.3
03 15.12 СВ 8 н/о 10/10 600 м
[]
-9.7 -11.1 89 -20 -20 992.1 986.5
06 15.12 СВ 9 н/о 10/10 600 м
[]
-8.7 -10.1 90 -19 -19 992.5 986.9 -14.2 -8.7

 

Местоположение метеостанции Shepherd Bay (Канада): широта 68.82 долгота -93.43 высота над уровнем моря 42 м.

В архиве по умолчанию представлена погода в Shepherd Bay за последнюю неделю. Архивные данные за месяц целиком и за предыдущие месяцы, начиная с января 2011 года, Вы можете получить, выбрав интересующий диапазон дат из раскрывающегося списка и нажав кнопку "Ввод!".


*Определитесь, кто Вы:
робот инопланетянин человек

Внимание! Время в таблицах - всемирное. Для получения местного времени необходимо прибавить поправку, которая в Shepherd Bay равна -6 ч.

Смотрите также архив погоды в соседних городах и на ближайших метеорологических станциях:

Погода в Spence bay (Канада) (81 км)
Погода в Gjoa Haven Climate (Канада) (100 км)
Погода в Kugaaruk climate (Канада) (150 км)
Погода в Pelly Bay (Канада) (157 км)
Погода в Hat Island (Канада) (273 км)
Погода в Back River MAPS (Канада) (332 км)
Погода в Wager Bay (Канада) (369 км)
Погода в Cambridge Bay Gsn (Канада) (466 км)
Погода в Cambridge Bay Arpt (Канада) (466 км)
Погода в Hall Beach Climate (Канада) (489 км)

Пояснения к столбцам:

Ветер - указаны скорость ветра в м/с - средняя за 10 мин, порывы в срок и между сроками (в фигурных скобках) и направление, откуда дует ветер: С - северный, СВ - северо-восточный, В - восточный, ЮВ - юго-восточный, Ю - южный, ЮЗ - юго-западный, З - западный, СЗ - северо-западный.
Видимость - горизонтальная дальность видимости в метрах или километрах. При видимости от 1 до 10 км при отсутствии осадков обычно наблюдается дымка, при ухудшении видимости до 1 км и менее - туман. В сухую погоду видимость может ухудшаться дымом, пылью или мглою.
Явления - указаны атмосферные явления, наблюдавшиеся в срок или в последний час перед сроком; фигурными скобками обозначены явления, наблюдавшиеся между сроками (за 1-3 часа до срока); квадратными скобками обозначены град или гололедные отложения с указанием их диаметра в мм.
Облачность - указаны через наклонную черту общая и нижняя облачность в баллах и высота нижней границы облаков в метрах; квадратными скобками обозначены формы облаков: Ci - перистые, Cs - перисто-слоистые, Cc - перисто-кучевые, Ac - высококучевые, As - высокослоистые, Sc - слоисто-кучевые, Ns - слоисто-дождевые, Cu - кучевые, Cb - кучево-дождевые. Подробнее классификацию облаков см. в Атласе облаков (PDF).
T - Температура воздуха - температура, измеренная на высоте 2 м над землей.
Td - Температура точки росы - температура, при понижении до которой содержащийся в воздухе водяной пар достигнет насыщения.
f - Относительная влажность воздуха - влажноcть воздуха, измеренная на высоте 2 м над землей.
Te - Эффективная температура - температура, которую ощущает одетый по сезону человек в тени. Характеристика душности погоды. При расчете учитывается влияние влажности воздуха и скорости ветра на теплоощущения человека.
Tes - Эффективная температура на солнце - температура, которую ощущает человек, с поправкой на солнечный нагрев. Характеристика знойности погоды. Зависит от высоты солнца над горизонтом, облачности и скорости ветра. Ночью, в пасмурную погоду, а также при ветре 12 м/с и более поправка равна нулю.
P - Атмосферное давление - приведенное к уровню моря атмосферное давление.
Po - Атмосферное давление - измеренное на уровне метеостанции атмосферное давление.
Tmin - Минимальная температура - минимум температуры воздуха на высоте 2 м над землей.
Tmax - Максимальная температура - максимум температуры воздуха на высоте 2 м над землей.
R - Количество осадков - Количество выпавших осадков за период времени, мм. При наведении курсора мыши на число - период времени, за который выпало указанное количество осадков.
R24 - Количество осадков - Количество выпавших осадков за 24 часа, мм.
S - Снежный покров - Высота снежного покрова, см. При наведении курсора мыши на число - состояние снежного покрова и степень покрытия местности в баллах.